Вернуться в каталог

ONEWEB-0445

АктивенСвязьPO
NORAD 51639·PAYLOAD·🇬🇧 United Kingdom

Запущен Feb 10, 2022 с Guiana Space Centre

Loading…

Ближайшие Пролёты (ближайшие 24 часа)

TLE

СвежийSource: CelesTrak SupGP

Эпоха: Sep 14, 2026, 18:48 UTC

1 51639C 22012T   26257.78383519  .00001616  00000+0  46340-2 0  2576
2 51639  87.8918  18.4214 0001601 103.3221   6.6963 13.10374468    15

Отслеживайте ONEWEB-0445 в реальном времени с AllMySat

Download on the App Store